Regional Weather Roundup
Issued by NWS

Home | Current Version | Previous Version | Text Only | Print | Product List | Glossary On
Versions: 1 2 3 4 5 6 7 8 9 10 11 12 13 14 15 16 17 18 19 20 21 22 23 24 25 26 27 28 29 30 31 32 33 34 35 36 37 38 39 40 41 42 43 44 45 46 47 48 49 50
000
ASUS43 KMKX 191821
RWRWI

WISCONSIN REGIONAL WEATHER ROUNDUP
NATIONAL WEATHER SERVICE MILWAUKEE/SULLIVAN WI
100 PM CDT SAT APR 19 2014

NOTE: "FAIR" INDICATES FEW OR NO CLOUDS BELOW 12,000 FEET WITH NO
SIGNIFICANT WEATHER AND/OR OBSTRUCTIONS TO VISIBILITY.

WIZ001-002-006>008-014>016-023>028-191900-
NORTHWEST WISCONSIN

CITY           SKY/WX    TMP DP  RH WIND       PRES   REMARKS
SUPERIOR ARPT  LGT RAIN  34  32  92 NE8       30.07F WCI  27
6HR MIN TEMP:  33; 6HR MAX TEMP:  37; 6HR PCP:  0.02;

ASHLAND        CLOUDY    48  26  42 S10G17    30.07F
6HR MIN TEMP:  35; 6HR MAX TEMP:  48; 6HR PCP:  0.01;

HAYWARD        CLOUDY    47  28  47 S15G25    30.07F
6HR MIN TEMP:  36; 6HR MAX TEMP:  47;

SIREN          CLOUDY    48  29  49 S23G32    30.01F
6HR MIN TEMP:  38; 6HR MAX TEMP:  48;

RICE LAKE      CLOUDY    55  30  39 SE25      30.10F
6HR MIN TEMP:  36; 6HR MAX TEMP:  55;

LADYSMITH      PTSUNNY   52  32  46 SE17G25   30.17F
6HR MIN TEMP:  36; 6HR MAX TEMP:  52;

EAU CLAIRE     MOSUNNY   60  31  33 S23G30    30.13F
6HR MIN TEMP:  36; 6HR MAX TEMP:  60;

MENOMONIE      MOCLDY    58  31  35 SE18      30.12F
6HR MIN TEMP:  36; 6HR MAX TEMP:  59;

NEW RICHMOND   CLOUDY    54  34  46 S20G26    30.06F
6HR MIN TEMP:  38; 6HR MAX TEMP:  55;

OSCEOLA        CLOUDY    54  36  49 SE21      30.07F
6HR MIN TEMP:  39; 6HR MAX TEMP:  54;

$$

WIZ003>005-009-010-017-018-191900-
NORTH CENTRAL WISCONSIN

CITY           SKY/WX    TMP DP  RH WIND       PRES   REMARKS
WOODRUFF       PTSUNNY   50  26  38 SE15G23   30.18F
6HR MIN TEMP:  32; 6HR MAX TEMP:  51;

RHINELANDER    MOSUNNY   45  24  43 SE16G22   30.23F
6HR MIN TEMP:  28; 6HR MAX TEMP:  45;

EAGLE RIVER    PTSUNNY   47  20  34 SE16      30.20F
6HR MIN TEMP:  29; 6HR MAX TEMP:  47;

LAND O LAKES   PTSUNNY   48  20  33 S15G26    30.20F
6HR MIN TEMP:  29; 6HR MAX TEMP:  48;

PHILLIPS       PTSUNNY   48  28  46 SE15G26   30.16F
6HR MIN TEMP:  32; 6HR MAX TEMP:  48;

TOMAHAWK       MOSUNNY   46  26  44 SE7G16    30.21F
6HR MIN TEMP:  30; 6HR MAX TEMP:  47;

MEDFORD        MOSUNNY   49  31  51 SE16G23   30.20F
6HR MIN TEMP:  32; 6HR MAX TEMP:  49;

MERRILL        SUNNY     51  29  43 CALM      30.23F
6HR MIN TEMP:  32; 6HR MAX TEMP:  51;

$$

WIZ029-030-035-036-043>047-191900-
CENTRAL WISCONSIN

CITY           SKY/WX    TMP DP  RH WIND       PRES   REMARKS
WAUSAU         SUNNY     54  27  35 SE14G22   30.22F
6HR MIN TEMP:  31; 6HR MAX TEMP:  54;

MOSINEE        SUNNY     50  30  46 SE18G24   30.25F
MARSHFIELD     MOSUNNY   54  31  41 SE18G26   30.21F
6HR MIN TEMP:  33; 6HR MAX TEMP:  54;

STEVENS POINT  MOSUNNY   50  27  41 SE14G21   30.25F
6HR MIN TEMP:  30; 6HR MAX TEMP:  50;

WAUPACA        MOSUNNY   54  30  40 E12       30.30F
WAUTOMA        MOSUNNY   56  29  35 SE14      30.28F
6HR MIN TEMP:  33; 6HR MAX TEMP:  56;

WISC RAPIDS    MOSUNNY   57  28  33 SE17G24   30.25F
6HR MIN TEMP:  32; 6HR MAX TEMP:  57;

CAMP DOUGLAS   SUNNY     58  31  36 SE18G24   30.22F
6HR MIN TEMP:  32; 6HR MAX TEMP:  58;

$$

WIZ011>013-019>022-031-037>040-048>050-191900-
NORTHEAST WISCONSIN

CITY           SKY/WX    TMP DP  RH WIND       PRES   REMARKS
ANTIGO         SUNNY     46  30  52 SE18      30.25F
6HR MIN TEMP:  28; 6HR MAX TEMP:  46;

STURGEON BAY   MOSUNNY   45  28  53 SE9       30.36F
6HR MIN TEMP:  32; 6HR MAX TEMP:  43;

GREEN BAY      MOSUNNY   48  33  56 SE13      30.33F
6HR MIN TEMP:  32; 6HR MAX TEMP:  48;

MANITOWOC      MOSUNNY   40  30  67 S13G21    30.36F WCI  32
6HR MIN TEMP:  34; 6HR MAX TEMP:  40;

APPLETON       PTSUNNY   48  30  49 S13G21    30.32F
CLINTONVILLE   MOSUNNY   50  28  43 S10       30.32F
OSHKOSH        PTSUNNY   51  31  46 SE12      30.31F
6HR MIN TEMP:  33; 6HR MAX TEMP:  51;

$$

WIZ032>034-041-042-053>061-191900-
SOUTHWEST WISCONSIN

CITY           SKY/WX    TMP DP  RH WIND       PRES   REMARKS
LA CROSSE      SUNNY     61  32  33 S17       30.16F
6HR MIN TEMP:  38; 6HR MAX TEMP:  61;

SPARTA         SUNNY     61  29  30 SE14G24   30.19F
6HR MIN TEMP:  35; 6HR MAX TEMP:  61;

VIROQUA        FAIR      60  34  38 S15G23    30.20F
6HR MIN TEMP:  34; 6HR MAX TEMP:  60;

BOSCOBEL       MOSUNNY   62  30  29 SE8G20    30.23F
6HR MIN TEMP:  37; 6HR MAX TEMP:  63;

PRAIRIE DU CHI MOSUNNY   62  29  29 SE12G18   30.21F
6HR MIN TEMP:  36; 6HR MAX TEMP:  62;

PLATTEVILLE    FAIR      62  34  34 SE13      30.26F
6HR MIN TEMP:  34; 6HR MAX TEMP:  62;

$$

WIZ056-057-062-063-064-067-068-191900-
SOUTH CENTRAL WISCONSIN

CITY           SKY/WX    TMP DP  RH WIND       PRES   REMARKS
BARABOO/DELLS  MOSUNNY   57  31  37 SE14G21   30.25F
6HR MIN TEMP:  33; 6HR MAX TEMP:  57;

LONE ROCK      MOSUNNY   60  33  36 SE15      30.24F
6HR MIN TEMP:  36; 6HR MAX TEMP:  61;

WATERTOWN      PTSUNNY   55  34  44 S10G20    30.31S
6HR MIN TEMP:  33; 6HR MAX TEMP:  55;

MADISON        PTSUNNY   59  34  39 SE18      30.29F
6HR MIN TEMP:  34; 6HR MAX TEMP:  59;

MIDDLETON      FAIR      59  33  36 SE13G20   30.28F
6HR MIN TEMP:  37; 6HR MAX TEMP:  60;

MONROE         MOSUNNY   60  32  34 SE15G21   30.28F
6HR MIN TEMP:  33; 6HR MAX TEMP:  60;

JANESVILLE     SUNNY     61  30  31 SE17      30.30F
$$

WIZ051-052-058>065-066-070>072-191900-
SOUTHEAST WISCONSIN

CITY           SKY/WX    TMP DP  RH WIND       PRES   REMARKS
MILWAUKEE      PTSUNNY   44  33  65 SE14      30.36F
6HR MIN TEMP:  35; 6HR MAX TEMP:  45;

WAUKESHA       PTSUNNY   48  34  57 SE9G16    30.34F
MILWAUKEE/TIMM SUNNY     45  30  57 SE12      30.36F
RACINE         MOSUNNY   44  33  65 SE14      30.37F
6HR MIN TEMP:  36; 6HR MAX TEMP:  45;

BURLINGTON     MOSUNNY   52  35  51 SW9       30.33F
6HR MIN TEMP:  32; 6HR MAX TEMP:  53;

KENOSHA        MOSUNNY   47  36  65 SE12      30.35F
6HR MIN TEMP:  34; 6HR MAX TEMP:  48;

FOND DU LAC    PTSUNNY   52  32  46 SE15      30.31F
6HR MIN TEMP:  34; 6HR MAX TEMP:  52;

SHEBOYGAN      PTSUNNY   44  32  62 SE14G22   30.35F
6HR MIN TEMP:  33; 6HR MAX TEMP:  44;

WEST BEND      PTSUNNY   45  32  61 SE10      30.35S
JUNEAU         PTSUNNY   53  27  37 SE13      30.32F
6HR MIN TEMP:  33; 6HR MAX TEMP:  53;

$$

LSZ147-162-191900-
LAKE SUPERIOR

STATION/POSITION TIME  TEMP    WIND        PRES    WAVE
                       AIR SEA DIR/SP/G            HT/PER
                 (UTC) (F)     (DEG/KT/KT) (MB)    (FT/S)
DEVILS ISLAND    1800   34      70/ 13/ 15 1019.7F
PORT WING        1712   33      30/ 17/ 40 1019.0F
SAXON HARBOR     1740          170/  8/ 19 1018.3F
$$

LMZ867-665-643>646-191900-
LAKE MICHIGAN

STATION/POSITION TIME  TEMP    WIND        PRES    WAVE
                       AIR SEA DIR/SP/G            HT/PER
                 (UTC) (F)     (DEG/KT/KT) (MB)    (FT/S)
NORTHPORT PIER   1700   34     120/  7/  8 1029.5F
SISTER BAY       1723   48     140/ 12/ 17   N/A
KEWAUNEE LAKESHO 1800   35     170/  9/ 10 1028.8F
SHEBOYGAN LAKESH 1800   37     170/ 12/ 14 1028.8F
PORT WASHINGTON  1700   38     150/  5/  7 1029.5
MILWAUKEE LAKESH 1800   37     140/  6/  7   N/A
KENOSHA   LAKESH 1800   42     130/  4/  5   N/A
$$

TC  - TEMPERATURE IN CELSIUS
VSB - VISIBILITY IN STATUTE MILES
WCI - WIND CHILL INDEX
HX  - HEAT INDEX




USA.gov is the U.S. government's official web portal to all federal, state and local government web resources and services.